Location: *
(46.1006°N, 1.8394°E)
Time: 07:05:28
(UTC+00:00)

Cosmos 2218 Rocket - Pass Details

Date: 20 September 2019
Orbit: 956 x 1006 km, 82.9° (Epoch: 18 October)

Event Time Altitude Azimuth Distance (km) Brightness Sun altitude
Rises 19:35:46 0° 353° (N) 3,741 7.5 -17.9°
Reaches altitude 10° 19:38:21 10° 355° (N) 2,783 6.7 -18.3°
Maximum altitude 19:44:43 70° 79° (E) 1,057 4.0 -19.3°
Enters shadow 19:49:02 22° 160° (SSE) 2,031 5.3 -20.0°
